Аэропорт
Запорожье (UKDE)

 UKDE / OZH
vACC Украина
Днепропетровск (UKDV)
Днепропетровск (UKDV)
 47.86700, 35.31570  / 373 ft

 UKDE 220600Z 18002MPS CAVOK 12/10 Q1021 R20/090070 NOSIG
 TAF UKDE 220204Z 2203/2212 22005MPS 3100 BR BKN010 TEMPO 2203/2206 25003MPS 0300 FG VV002 BECMG 2206/2208 25005MPS 9999 NSW BKN020

Запорожье (укр. Запоріжжя) — международный аэропорт города Запорожье (Украина) обеспечивающий взлёт и посадку на двух взлётно-посадочных полосах (искусственной и грунтовой). Работает в круглосуточном режиме. Расположен в черте города к востоку от центра на расстоянии около 15 км от центральной части Запорожья. Эксплуатантом аэропорта является коммунальное предприятие «Международный аэропорт Запорожье».

Сценарии и схемы аэропорта Вы можете найти на сайте vACC Украина.



2020 © VATRUS division (Privacy Policy)